Temperature
16 16 16 16 16 16 17 17 17 17 16 16 16 16 16 15 15 16 15 15 15 15 15 16 16 16 16 16 16 16 17 17 17 17 17 17 17 17 17 16 16 16 16
16 16 16 16 16 16 17 17 16 16 16 16 16 16 16 16 16 16 16 15 15 15 15 15 15 15 16 16 16 16 16 16 16 16 17 17 16 16 16 16 16 16 15
16 16 16 16 16 16 16 16 16 16 16 16 16 16 16 16 15 16 16 15 15 15 15 15 15 15 15 15 15 15 15 16 16 16 16 16 16 16 15 15 15 15 15
16 16 16 16 16 16 16 16 16 16 16 16 16 16 16 15 15 15 15 15 15 15 15 15 15 15 15 15 15 15 15 15 15 15 15 15 15 15 15 15 15 15 15
17 17 17 16 16 16 16 16 16 16 16 16 16 15 15 15 15 16 15 15 15 15 15 15 15 15 15 14 14 14 14 14 14 14 14 14 14 14 14 14 14 14 14
17 17 17 17 16 16 16 16 16 16 16 15 15 15 15 15 16 15 15 15 15 15 14 14 14 14 14 14 14 14 14 13 13 13 13 13 13 13 13 13 13 12 13
17 17 16 16 16 16 16 16 16 16 15 15 15 15 15 15 15 15 15 15 14 14 14 14 13 13 13 13 13 13 13 12 12 12 12 12 12 11 11 12 11 11 11
17 16 16 16 16 16 15 15 15 15 15 15 15 14 14 14 14 14 14 14 13 13 13 13 12 12 12 12 12 12 12 11 11 11 11 11 11 10 10 10 10 10 10
16 16 16 15 15 15 15 15 14 14 14 14 14 14 13 13 13 13 13 13 12 12 12 12 11 11 11 11 11 11 11 10 10 10 10 10 10 10 9 9 9 8 8
15 15 15 15 15 15 14 14 14 13 13 13 13 12 12 12 12 12 12 12 11 11 11 11 11 10 10 10 10 10 10 10 9 9 9 9 9 9 8 8 8 8 7
15 15 14 14 14 14 13 13 13 13 12 12 12 11 11 11 11 11 11 11 11 10 10 9 9 9 9 9 9 9 8 8 8 8 8 8 8 8 8 7 7 7 6
14 14 13 13 13 13 12 12 12 12 12 11 11 10 10 10 10 10 10 10 10 9 9 9 8 8 8 8 8 7 7 7 7 7 7 7 7 7 7 6 6 6 6
13 13 12 12 12 12 12 11 11 11 11 10 10 10 9 9 9 9 9 9 9 8 8 8 8 7 7 7 6 6 6 6 6 6 6 5 5 5 5 5 5 5 5
12 12 11 11 11 11 11 11 11 10 10 10 10 9 9 9 9 8 8 8 8 8 7 7 7 7 6 6 6 6 5 5 5 5 4 4 4 4 4 4 4 4 4
11 11 11 11 10 10 10 10 10 10 10 10 9 9 8 8 8 8 7 7 7 7 7 6 6 6 6 6 5 5 4 4 4 4 4 3 3 3 3 3 3 3 3
11 10 10 10 10 10 10 10 9 9 9 9 9 8 8 7 7 7 7 6 6 6 6 6 5 5 5 4 4 4 3 3 3 3 2 2 2 2 2 2 2 2 2
10 10 10 10 9 9 9 9 9 8 8 8 8 7 7 7 6 6 6 6 6 6 5 5 5 4 4 3 3 3 2 2 2 2 2 1 1 1 1 1 1 1 1
10 10 10 10 9 9 9 9 8 8 7 7 7 6 6 6 5 5 5 5 5 5 5 4 4 3 3 2 2 2 2 1 1 1 1 1 1 1 0 0 0 0 0
9 9 10 10 10 9 9 9 8 8 7 7 6 6 6 5 5 5 5 4 4 4 4 3 3 3 2 2 2 1 1 1 1 1 0 0 0 -0 -0 -0 -0 -0 -0
9 9 9 9 9 9 9 9 8 8 7 7 6 5 5 5 5 5 4 4 4 4 3 3 2 2 2 1 1 1 0 0 0 -0 -0 -0 -1 -1 -1 -1 -1 -1 -0
9 9 9 9 9 9 9 8 8 7 7 6 6 5 5 5 5 4 4 3 3 3 2 2 2 2 1 1 1 0 -0 -0 -1 -1 -1 -1 -1 -1 -1 -1 -1 -1 -1
9 9 9 8 8 8 8 8 7 7 6 6 6 5 5 4 4 4 3 3 3 2 2 2 1 1 1 0 -0 -0 -1 -1 -1 -1 -1 -1 -1 -1 -1 -1 -1 -1 -1
9 8 8 8 8 7 7 7 7 6 6 6 5 5 4 4 4 3 3 2 2 2 1 1 1 1 0 -0 -0 -1 -1 -1 -1 -1 -1 -1 -1 -1 -1 -2 -1 -1 -1
8 8 8 8 7 7 7 7 6 6 6 5 5 4 4 4 3 3 2 2 2 1 1 1 1 0 0 -0 -1 -1 -1 -1 -1 -1 -1 -1 -1 -1 -1 -2 -1 -1 -1
8 8 7 7 7 7 6 6 6 5 5 5 4 4 4 3 3 3 2 2 1 1 1 1 0 0 -0 -0 -1 -1 -1 -1 -1 -1 -1 -1 -1 -1 -2 -2 -1 -1 -1
8 7 7 7 6 6 6 6 5 5 5 4 4 4 3 3 3 2 2 1 1 1 1 1 0 0 -0 -0 -1 -1 -1 -1 -1 -1 -1 -1 -1 -2 -2 -1 -1 -1 -1
Wind_Speed
8 7 8 8 7 7 6 6 5 5 5 6 6 6 6 6 5 5 4 4 5 4 4 3 2 3 4 4 3 2 2 2 3 3 2 1 2 1 3 6 8 9 13
9 8 8 8 8 8 7 6 6 6 5 5 5 5 6 6 6 6 6 5 5 5 4 3 3 4 3 3 3 4 3 2 2 4 3 3 1 2 3 4 7 9 9
10 9 8 8 8 7 7 6 6 6 6 5 5 5 5 5 6 6 6 5 4 4 3 3 3 3 2 2 3 3 4 4 2 3 4 3 2 2 2 3 5 4 9
11 11 10 9 8 8 7 7 6 6 5 5 4 4 4 2 2 3 4 4 2 1 1 2 2 2 2 2 2 3 4 4 4 4 4 4 3 3 2 2 4 4 5
11 11 10 9 8 8 7 6 6 5 5 4 2 2 1 2 2 1 0 2 2 3 3 4 5 6 7 6 4 4 5 4 4 4 4 4 3 4 4 4 4 5 6
9 9 9 8 8 7 7 6 6 5 5 5 5 5 6 5 6 8 5 4 5 5 5 4 5 6 7 7 7 6 5 4 4 4 4 4 5 5 5 5 5 5 5
8 8 8 8 8 7 7 7 7 7 7 8 8 9 9 9 11 11 9 7 7 6 5 5 5 7 7 5 4 3 3 3 2 2 3 4 4 4 5 5 6 6 7
8 8 8 8 8 7 7 8 8 8 8 8 9 9 9 10 12 11 9 7 7 7 7 6 7 7 8 7 5 4 2 2 1 1 1 3 4 3 3 5 7 7 8
8 7 7 8 8 9 9 9 8 8 9 9 9 10 11 11 13 11 8 5 6 7 7 8 7 7 10 11 7 6 5 5 5 5 6 8 10 11 8 4 5 6 8
8 8 8 9 10 10 10 9 9 9 10 10 10 10 11 10 13 14 9 5 6 5 6 8 12 10 10 10 7 6 6 7 8 9 8 9 9 10 10 6 5 6 7
10 11 11 11 11 11 10 10 10 10 11 11 11 10 10 10 12 14 13 6 5 4 4 5 5 7 7 8 6 4 4 6 7 7 7 6 4 3 2 2 3 4 6
12 13 12 11 11 11 10 10 10 10 10 9 9 8 8 8 10 11 13 12 9 6 5 4 3 4 5 6 4 4 7 8 6 6 5 5 6 6 6 6 7 7 7
14 14 13 13 11 10 10 9 7 6 6 6 6 7 8 7 7 10 10 10 9 5 4 4 3 5 6 4 4 6 6 4 5 6 6 6 6 6 6 5 7 9 10
15 13 12 12 11 11 9 8 7 5 4 5 6 7 7 6 6 6 5 5 6 6 5 4 6 6 4 5 4 2 2 4 5 5 6 6 6 7 6 7 7 8 8
14 13 12 11 12 12 12 10 10 9 9 8 8 7 6 6 5 6 5 5 5 6 7 4 2 2 2 3 4 5 5 6 6 7 7 7 7 7 7 7 7 8 8
11 10 9 9 9 10 11 12 17 13 15 16 14 11 8 7 4 6 7 8 9 10 6 4 4 6 6 7 7 7 7 7 7 7 7 7 8 8 8 8 8 8 9
9 8 7 7 8 8 8 9 9 9 13 13 12 11 9 5 3 5 7 10 11 8 4 4 5 6 6 6 6 7 7 7 6 7 7 7 8 8 9 9 9 9 9
9 8 7 6 6 7 6 7 7 7 7 5 5 5 4 2 2 6 8 8 3 1 3 5 6 6 5 6 6 6 6 6 6 7 7 7 8 8 9 9 9 10 10
8 6 5 5 5 5 5 6 6 7 7 6 5 3 3 4 5 7 7 4 5 6 6 6 6 6 6 5 5 5 6 6 7 7 7 8 8 9 9 10 10 13 11
6 6 4 4 5 4 4 5 5 5 6 5 5 4 2 1 0 1 1 4 5 6 6 6 6 5 5 5 5 6 6 7 7 8 8 9 10 10 11 11 10 10 10
6 5 4 5 5 5 5 6 6 5 5 5 6 5 2 3 4 5 5 5 5 6 6 6 5 5 5 5 6 7 8 7 8 8 9 10 11 11 10 10 10 10 10
4 5 6 6 7 6 5 5 6 5 5 5 5 4 1 3 5 5 5 5 6 5 5 5 6 5 5 6 6 7 8 8 9 10 11 11 11 11 11 11 11 10 10
5 6 7 6 6 4 4 5 5 5 5 5 4 4 4 4 4 5 5 5 5 4 6 5 5 5 7 8 8 7 7 8 9 10 11 11 11 11 11 12 13 13 12
5 6 7 6 5 5 5 5 5 5 5 5 4 4 4 3 4 5 5 5 5 5 6 7 7 8 9 9 8 9 9 10 11 12 13 12 13 12 12 12 12 13 12
6 6 6 5 4 4 5 5 5 5 5 4 4 4 4 4 4 4 4 5 5 5 7 7 7 8 9 10 10 10 10 12 13 13 13 12 12 13 13 14 12 12 13
6 6 5 5 4 4 4 4 4 4 3 4 4 3 3 4 4 4 4 4 5 5 6 7 9 10 10 9 10 10 12 15 16 17 14 12 11 12 13 12 14 13 13
Wind_Direction
163 166 162 163 165 164 165 158 153 148 152 165 171 171 175 177 183 203 240 187 197 222 241 227 224 282 318 332 321 302 294 296 291 302 317 35 131 155 166 235 251 232 225
160 158 157 159 163 167 164 163 159 161 171 178 178 180 192 189 186 197 226 211 196 212 229 246 241 245 241 287 318 316 310 314 308 303 312 332 296 230 219 241 261 263 262
164 161 158 162 165 167 167 168 168 172 182 188 190 190 206 204 191 199 215 225 208 213 220 222 241 268 278 289 293 309 319 314 313 291 293 299 298 302 286 271 281 294 295
164 164 165 168 168 167 169 171 173 176 182 192 194 196 208 218 211 213 210 216 209 187 71 70 54 41 1 322 312 330 325 324 325 315 303 305 307 328 339 320 306 317 309
161 164 165 166 167 166 166 168 166 173 177 162 143 120 108 93 30 42 206 166 129 102 78 76 71 69 61 47 36 22 4 352 339 330 319 329 344 355 351 335 316 316 302
161 163 161 161 161 161 160 153 141 131 117 110 97 85 73 62 49 62 68 74 85 91 89 83 78 64 62 64 61 54 41 19 2 346 341 345 359 3 355 338 331 328 313
157 158 155 155 156 156 153 135 126 118 107 100 94 87 77 53 50 59 64 76 79 76 71 64 60 53 41 34 45 62 64 66 58 2 349 346 344 355 346 330 323 314 294
152 151 148 147 142 133 124 117 110 107 105 101 96 91 81 56 47 52 59 79 81 77 74 73 71 54 32 22 15 21 23 18 355 315 319 307 314 323 305 296 292 291 281
142 136 134 134 127 119 114 110 107 105 100 97 95 90 82 60 45 48 50 82 84 77 73 68 71 65 36 23 18 13 10 358 349 337 306 287 281 277 272 286 293 298 300
121 116 111 109 109 109 107 106 105 103 100 95 88 83 81 70 50 48 46 72 83 86 85 76 64 59 41 29 21 12 4 353 341 328 309 290 276 271 262 245 277 301 309
103 99 97 98 99 101 103 104 106 103 100 98 96 89 83 78 62 52 47 52 48 67 79 85 70 48 33 21 7 357 342 324 314 305 302 306 312 323 350 351 329 318 314
98 96 95 93 97 99 96 95 99 106 108 109 110 104 93 79 64 55 50 45 37 43 49 57 52 7 349 335 326 318 320 318 310 317 328 340 349 356 353 345 333 319 304
97 93 90 86 85 90 93 96 100 104 111 116 115 107 98 84 65 53 47 42 36 37 34 21 330 301 309 305 272 292 312 326 342 343 345 348 348 345 338 332 330 327 319
98 97 94 90 81 71 70 69 65 56 78 93 88 91 89 71 47 31 30 31 26 26 2 318 285 274 282 311 333 340 338 1 359 349 345 343 341 340 340 339 333 331 322
100 100 98 93 89 78 69 59 68 54 57 69 67 69 76 69 38 27 25 17 6 3 333 307 316 20 18 16 14 18 15 10 6 356 347 342 338 336 334 333 327 323 318
105 105 106 109 109 107 100 81 59 66 67 72 76 84 82 87 77 31 14 354 344 346 341 349 20 26 22 18 12 8 10 10 2 349 343 341 338 335 332 330 328 325 322
96 98 106 112 117 117 118 116 106 77 63 67 76 85 94 97 43 0 347 334 319 327 345 8 33 31 23 15 10 6 1 357 351 344 343 341 338 335 332 329 329 327 325
91 93 99 106 112 117 123 127 129 128 118 102 95 112 127 142 316 325 331 328 345 50 23 28 32 26 23 15 8 1 352 348 349 345 339 338 336 332 328 326 325 323 321
78 80 82 97 105 113 125 126 122 123 122 124 128 143 206 232 265 286 317 347 7 23 31 29 26 20 16 13 5 355 348 346 347 340 338 339 335 330 325 323 320 318 316
84 74 71 88 94 96 96 99 100 103 109 114 104 76 34 277 222 64 54 16 10 21 26 22 17 9 9 10 3 356 348 347 347 346 344 339 334 328 322 318 317 316 315
104 101 90 79 72 70 75 77 74 72 76 88 88 84 25 356 34 36 32 27 20 17 20 12 4 2 10 10 4 351 347 350 353 350 343 335 328 322 317 315 315 314 313
95 91 79 75 73 64 61 73 78 78 73 80 101 112 83 13 34 33 26 27 23 16 15 9 359 1 12 6 352 349 353 358 356 345 333 324 319 316 316 314 311 311 311
89 95 91 86 88 93 76 71 71 70 65 63 62 62 61 33 30 34 25 26 18 8 7 1 353 355 3 357 355 15 18 5 346 332 325 320 318 314 310 307 307 309 309
82 84 85 86 81 78 78 74 65 59 57 55 50 46 43 40 34 34 21 16 5 1 1 354 348 350 355 359 9 24 21 360 343 331 323 313 308 305 305 304 304 305 306
88 86 86 81 76 75 73 70 66 59 53 46 41 34 28 26 30 29 19 10 358 358 354 349 347 348 354 16 22 16 6 353 343 333 320 308 302 302 300 301 304 307 308
85 82 84 87 80 75 79 76 67 56 51 48 42 33 18 14 21 20 11 2 351 350 347 342 344 355 11 26 22 16 2 350 341 333 321 304 299 300 306 310 312 313 312
Height
1495 1498 1503 1506 1510 1514 1518 1521 1524 1527 1530 1532 1534 1536 1538 1540 1542 1544 1545 1547 1548 1549 1550 1551 1552 1553 1554 1555 1556 1556 1557 1557 1557 1557 1558 1558 1558 1558 1558 1558 1557 1557 1556
1494 1498 1502 1506 1509 1513 1516 1520 1523 1525 1528 1531 1533 1535 1537 1539 1540 1542 1544 1545 1546 1547 1548 1549 1550 1551 1552 1552 1553 1554 1554 1555 1555 1555 1555 1555 1555 1555 1554 1554 1553 1553 1553
1495 1498 1502 1505 1509 1512 1515 1518 1521 1524 1527 1529 1531 1533 1535 1537 1539 1540 1542 1543 1545 1546 1547 1547 1548 1549 1549 1550 1550 1551 1551 1552 1552 1552 1551 1552 1551 1551 1550 1549 1549 1549 1548
1495 1498 1501 1505 1508 1511 1514 1517 1520 1522 1525 1528 1530 1532 1534 1536 1537 1538 1540 1541 1542 1543 1544 1545 1545 1546 1546 1547 1547 1547 1548 1548 1548 1548 1548 1548 1547 1547 1546 1545 1544 1543 1543
1494 1497 1500 1504 1507 1510 1513 1516 1518 1521 1524 1526 1528 1530 1532 1533 1534 1536 1538 1539 1539 1540 1541 1542 1542 1543 1543 1544 1544 1544 1544 1544 1544 1544 1544 1543 1543 1542 1541 1540 1539 1538 1537
1494 1497 1500 1503 1506 1509 1512 1514 1517 1519 1522 1524 1526 1528 1529 1531 1532 1534 1535 1536 1537 1538 1538 1539 1539 1540 1540 1540 1540 1540 1540 1540 1540 1540 1539 1539 1538 1537 1536 1535 1533 1532 1530
1494 1497 1500 1502 1505 1508 1511 1513 1515 1518 1520 1523 1525 1526 1528 1529 1530 1532 1532 1533 1534 1535 1535 1536 1536 1537 1537 1537 1536 1536 1536 1536 1536 1536 1535 1534 1534 1532 1531 1530 1529 1527 1525
1493 1496 1499 1501 1504 1507 1510 1512 1515 1517 1519 1521 1523 1524 1526 1527 1529 1530 1530 1531 1532 1533 1533 1534 1534 1534 1534 1534 1533 1533 1533 1533 1532 1531 1531 1530 1529 1528 1526 1525 1523 1520 1518
1492 1495 1498 1500 1503 1506 1509 1511 1514 1516 1518 1520 1522 1524 1525 1526 1528 1529 1529 1530 1531 1531 1532 1532 1532 1532 1532 1531 1531 1530 1530 1529 1529 1528 1527 1526 1525 1524 1522 1520 1518 1516 1513
1491 1494 1497 1500 1502 1505 1508 1511 1513 1516 1518 1520 1522 1524 1525 1526 1527 1528 1529 1530 1530 1530 1531 1531 1530 1530 1530 1529 1528 1527 1527 1526 1525 1524 1523 1522 1521 1520 1518 1516 1514 1512 1510
1491 1494 1497 1500 1503 1506 1509 1511 1514 1516 1518 1520 1522 1524 1525 1526 1527 1528 1529 1529 1530 1530 1530 1530 1529 1528 1528 1527 1526 1525 1524 1523 1521 1520 1520 1519 1518 1516 1514 1512 1510 1509 1506
1492 1495 1498 1501 1504 1507 1510 1512 1515 1517 1519 1521 1523 1525 1526 1527 1528 1529 1529 1530 1530 1530 1530 1529 1528 1527 1526 1525 1524 1523 1522 1521 1519 1518 1517 1516 1514 1512 1510 1508 1506 1504 1502
1493 1496 1500 1503 1506 1509 1512 1515 1517 1519 1521 1523 1525 1527 1528 1528 1529 1529 1529 1530 1529 1529 1529 1528 1527 1526 1525 1524 1523 1522 1521 1519 1518 1517 1515 1513 1511 1509 1506 1504 1502 1499 1497
1495 1499 1503 1506 1509 1511 1514 1517 1519 1522 1524 1526 1527 1528 1529 1529 1529 1529 1529 1529 1528 1528 1527 1527 1526 1526 1525 1524 1522 1521 1520 1518 1517 1515 1513 1511 1508 1506 1503 1500 1497 1494 1491
1498 1502 1505 1508 1511 1514 1516 1518 1521 1523 1525 1527 1528 1529 1529 1529 1530 1529 1529 1528 1528 1527 1526 1526 1526 1525 1524 1523 1522 1520 1518 1516 1515 1513 1510 1508 1505 1503 1500 1497 1494 1491 1488
1501 1505 1509 1512 1514 1516 1518 1521 1523 1526 1527 1528 1529 1530 1530 1530 1530 1530 1529 1528 1527 1527 1526 1526 1525 1524 1523 1522 1520 1519 1517 1515 1512 1510 1508 1506 1503 1500 1497 1494 1492 1489 1485
1505 1509 1513 1516 1518 1520 1522 1524 1525 1527 1529 1530 1530 1531 1531 1531 1530 1530 1529 1528 1528 1527 1527 1526 1525 1524 1523 1521 1519 1517 1516 1513 1511 1509 1506 1503 1500 1497 1494 1491 1488 1485 1481
1510 1513 1516 1519 1521 1523 1525 1526 1528 1528 1530 1531 1532 1532 1532 1531 1531 1530 1530 1529 1529 1528 1527 1526 1525 1523 1522 1520 1519 1516 1514 1512 1509 1507 1504 1501 1498 1494 1491 1488 1485 1481 1477
1515 1517 1519 1522 1524 1525 1527 1528 1530 1531 1531 1532 1532 1532 1532 1532 1531 1531 1530 1530 1529 1529 1527 1526 1524 1523 1522 1520 1518 1515 1513 1510 1508 1505 1502 1498 1495 1492 1488 1485 1481 1478 1474
1519 1520 1522 1524 1526 1528 1529 1530 1531 1532 1532 1533 1533 1533 1532 1532 1532 1532 1531 1530 1530 1529 1527 1526 1524 1523 1521 1519 1516 1514 1511 1509 1505 1502 1499 1496 1492 1488 1485 1481 1478 1474 1470
1523 1524 1525 1527 1528 1529 1530 1531 1532 1533 1534 1534 1533 1533 1533 1533 1533 1533 1532 1531 1530 1528 1527 1525 1524 1522 1520 1518 1515 1512 1510 1507 1503 1500 1496 1492 1488 1485 1481 1478 1474 1471 1467
1525 1526 1527 1528 1529 1530 1531 1533 1533 1534 1534 1534 1534 1534 1533 1534 1533 1533 1532 1531 1529 1528 1526 1524 1523 1521 1519 1516 1513 1511 1507 1504 1500 1496 1492 1488 1484 1481 1477 1474 1470 1467 1463
1527 1528 1529 1529 1530 1531 1533 1534 1534 1535 1535 1535 1535 1535 1534 1534 1533 1532 1531 1530 1529 1527 1525 1524 1522 1520 1518 1515 1512 1509 1505 1501 1498 1493 1489 1484 1480 1477 1473 1470 1467 1463 1460
1528 1529 1530 1531 1532 1533 1534 1535 1535 1535 1535 1535 1535 1535 1534 1534 1533 1532 1531 1529 1528 1526 1525 1523 1521 1519 1516 1513 1510 1506 1503 1499 1495 1490 1486 1481 1477 1473 1470 1467 1464 1460 1457
1530 1531 1532 1532 1533 1534 1535 1535 1536 1536 1536 1536 1535 1535 1534 1534 1533 1531 1530 1529 1527 1526 1523 1521 1519 1517 1514 1511 1507 1504 1500 1496 1491 1487 1482 1478 1474 1470 1467 1464 1461 1457 1453
1531 1532 1533 1534 1534 1535 1535 1536 1536 1536 1536 1536 1535 1535 1534 1533 1532 1531 1529 1528 1526 1524 1522 1520 1518 1515 1512 1508 1504 1500 1496 1492 1487 1483 1479 1474 1471 1467 1465 1461 1458 1454 1450